| time (UTC) | temp F | wind direction | speed MPH | gust MPH | rain 1hr in | rain 24hr in | rain mn in | humidity % | barometer mb |
| 20260901063517 | 68 | 0.0 | 0.0 | 0.00 | 0.00 | 0.00 | 87 | 1023.6 | |
| 20260901062517 | 68 | 0.0 | 0.0 | 0.00 | 0.00 | 0.00 | 87 | 1023.7 | |
| 20260901061557 | 68 | 0.0 | 0.0 | 0.00 | 0.00 | 0.00 | 88 | 1023.7 | |
| 20260901060536 | 68 | 0.0 | 0.0 | 0.00 | 0.00 | 0.00 | 88 | 1023.7 | |
| 20260901055517 | 69 | 0.0 | 0.0 | 0.00 | 0.00 | 0.00 | 88 | 1023.7 | |
| 20260901054517 | 69 | 0.0 | 0.0 | 0.00 | 0.00 | 0.00 | 89 | 1023.9 | |
| 20260901053518 | 69 | 0.0 | 0.0 | 0.00 | 0.00 | 0.00 | 89 | 1023.6 | |
| 20260901052516 | 69 | 0.0 | 0.0 | 0.00 | 0.00 | 0.00 | 89 | 1023.7 | |
| 20260901051516 | 69 | 0.0 | 0.0 | 0.00 | 0.00 | 0.00 | 89 | 1023.7 | |
| 20260901050516 | 69 | 0.0 | 0.0 | 0.00 | 0.00 | 0.00 | 89 | 1023.8 | |
| 20260901045516 | 69 | 0.0 | 0.0 | 0.00 | 0.00 | 0.00 | 89 | 1023.8 | |
| 20260901044517 | 70 | 0.0 | 0.0 | 0.00 | 0.00 | 0.00 | 90 | 1023.9 | |
| 20260901043516 | 70 | 0.0 | 0.0 | 0.00 | 0.00 | 0.00 | 90 | 1023.6 | |
| 20260901042516 | 70 | 0.0 | 0.0 | 0.00 | 0.00 | 0.00 | 90 | 1023.4 | |
| 20260901040517 | 71 | 0.0 | 0.0 | 0.00 | 0.00 | 0.00 | 90 | 1023.3 | |
| 20260901035536 | 71 | 0.0 | 0.0 | 0.00 | 0.00 | 0.00 | 90 | 1023.2 | |
| 20260901034517 | 71 | 0.0 | 0.0 | 0.00 | 0.00 | 0.00 | 90 | 1023.2 | |
| 20260901033517 | 71 | 0.0 | 0.0 | 0.00 | 0.00 | 0.00 | 89 | 1022.8 | |
| 20260901032517 | 72 | 0.0 | 0.0 | 0.00 | 0.00 | 0.00 | 89 | 1022.9 | |
| 20260901031517 | 72 | 0.0 | 0.0 | 0.00 | 0.00 | 0.00 | 89 | 1022.9 | |
| 20260901030537 | 72 | 0.0 | 0.0 | 0.00 | 0.00 | 0.00 | 89 | 1022.7 | |
| 20260901025516 | 73 | 0.0 | 0.0 | 0.00 | 0.00 | 0.00 | 89 | 1022.6 | |
| 20260901024517 | 73 | 0.0 | 0.0 | 0.00 | 0.00 | 0.00 | 88 | 1022.8 | |
| 20260901023516 | 73 | 0.0 | 0.0 | 0.00 | 0.00 | 0.00 | 88 | 1022.6 | |
| 20260901022537 | 73 | 0.0 | 0.0 | 0.00 | 0.00 | 0.00 | 88 | 1022.7 | |
| 20260901021536 | 74 | 0.0 | 0.0 | 0.00 | 0.00 | 0.00 | 88 | 1022.4 | |
| 20260901020516 | 74 | 0.0 | 0.0 | 0.00 | 0.00 | 0.00 | 88 | 1022.4 | |
| 20260901015516 | 74 | 0.0 | 0.0 | 0.00 | 0.00 | 0.00 | 87 | 1022.3 | |
| 20260901014517 | 74 | 0.0 | 0.0 | 0.00 | 0.00 | 0.00 | 87 | 1022.4 | |
| 20260901013517 | 74 | 0.0 | 0.0 | 0.00 | 0.00 | 0.00 | 87 | 1022.2 | |
| 20260901012537 | 74 | 0.0 | 0.0 | 0.00 | 0.00 | 0.00 | 86 | 1022.0 | |
| 20260901011516 | 75 | 0.0 | 0.0 | 0.00 | 0.00 | 0.00 | 86 | 1021.7 | |
| 20260901010516 | 75 | 0.0 | 0.0 | 0.00 | 0.00 | 0.00 | 85 | 1021.7 | |
| 20260901005516 | 75 | 0.0 | 0.0 | 0.00 | 0.00 | 0.00 | 85 | 1021.6 | |
| 20260901004516 | 76 | 0.0 | 0.0 | 0.00 | 0.00 | 0.00 | 84 | 1021.5 | |
| 20260901003516 | 77 | 0.0 | 0.0 | 0.00 | 0.00 | 0.00 | 83 | 1021.4 | |
| 20260901002516 | 77 | 0.0 | 0.0 | 0.00 | 0.00 | 0.00 | 82 | 1021.3 | |
| 20260901001516 | 78 | 0.0 | 0.0 | 0.00 | 0.00 | 0.00 | 81 | 1021.6 | |
| 20260901000516 | 79 | 0.0 | 0.0 | 0.00 | 0.00 | 0.00 | 80 | 1021.5 | |
| 20260831235517 | 79 | 0.0 | 0.0 | 0.00 | 0.00 | 0.00 | 79 | 1021.5 | |
| 20260831234517 | 80 | 0.0 | 0.0 | 0.00 | 0.00 | 0.00 | 77 | 1021.7 | |
| 20260831233536 | 81 | 0.0 | 0.0 | 0.00 | 0.00 | 0.00 | 76 | 1021.7 | |
| 20260831232516 | 81 | 0.0 | 0.0 | 0.00 | 0.00 | 0.00 | 74 | 1021.7 | |
| 20260831231516 | 81 | 0.0 | 0.0 | 0.00 | 0.00 | 0.00 | 74 | 1021.8 | |
| 20260831230516 | 82 | 0.0 | 0.0 | 0.00 | 0.00 | 0.00 | 72 | 1021.9 | |
| 20260831225516 | 82 | 0.0 | 1.0 | 0.00 | 0.00 | 0.00 | 72 | 1021.9 | |
| 20260831224516 | 82 | 0.0 | 0.0 | 0.00 | 0.00 | 0.00 | 71 | 1021.8 | |
| 20260831223516 | 82 | 0.0 | 0.0 | 0.00 | 0.00 | 0.00 | 70 | 1021.9 | |
| 20260831222516 | 83 | 0.0 | 0.0 | 0.00 | 0.00 | 0.00 | 71 | 1021.9 | |
| 20260831221516 | 83 | 0.0 | 0.0 | 0.00 | 0.00 | 0.00 | 68 | 1021.9 | |
| 20260831220536 | 83 | 0.0 | 0.0 | 0.00 | 0.00 | 0.00 | 68 | 1021.9 | |
| 20260831215536 | 83 | 0.0 | 1.0 | 0.00 | 0.00 | 0.00 | 68 | 1022.0 | |
| 20260831214516 | 83 | 0.0 | 1.0 | 0.00 | 0.00 | 0.00 | 67 | 1021.9 | |
| 20260831213516 | 83 | 0.0 | 1.0 | 0.00 | 0.00 | 0.00 | 67 | 1022.1 | |
| 20260831212516 | 84 | 0.0 | 1.0 | 0.00 | 0.00 | 0.00 | 67 | 1022.1 | |
| 20260831211516 | 84 | 0.0 | 1.0 | 0.00 | 0.00 | 0.00 | 66 | 1022.1 | |
| 20260831210516 | 84 | 135 | 1.0 | 2.0 | 0.00 | 0.00 | 0.00 | 66 | 1021.9 |
| 20260831205516 | 84 | 135 | 1.0 | 2.0 | 0.00 | 0.00 | 0.00 | 66 | 1022.0 |
| 20260831204516 | 85 | 135 | 1.0 | 2.0 | 0.00 | 0.00 | 0.00 | 67 | 1022.2 |
| 20260831203557 | 86 | 0.0 | 1.0 | 0.00 | 0.00 | 0.00 | 64 | 1022.5 | |
| 20260831202516 | 87 | 0.0 | 0.0 | 0.00 | 0.00 | 0.00 | 61 | 1022.5 | |
| 20260831201516 | 87 | 135 | 1.0 | 2.0 | 0.00 | 0.00 | 0.00 | 61 | 1022.3 |
| 20260831200516 | 87 | 0.0 | 2.0 | 0.00 | 0.00 | 0.00 | 64 | 1022.6 | |
| 20260831195516 | 88 | 0.0 | 2.0 | 0.00 | 0.00 | 0.00 | 62 | 1022.8 | |
| 20260831194516 | 89 | 0.0 | 1.0 | 0.00 | 0.00 | 0.00 | 60 | 1023.1 | |
| 20260831193516 | 89 | 23 | 1.0 | 5.0 | 0.00 | 0.00 | 0.00 | 55 | 1023.0 |
| 20260831192516 | 89 | 23 | 1.0 | 2.0 | 0.00 | 0.00 | 0.00 | 60 | 1023.0 |
| 20260831191516 | 89 | 0.0 | 3.0 | 0.00 | 0.00 | 0.00 | 57 | 1023.1 | |
| 20260831190516 | 89 | 23 | 1.0 | 5.0 | 0.00 | 0.00 | 0.00 | 57 | 1023.2 |
| 20260831185516 | 89 | 23 | 1.0 | 4.0 | 0.00 | 0.00 | 0.00 | 49 | 1023.2 |
| 20260831184516 | 89 | 23 | 2.0 | 5.0 | 0.00 | 0.00 | 0.00 | 51 | 1023.2 |
| 20260831182516 | 89 | 23 | 1.0 | 4.0 | 0.00 | 0.00 | 0.00 | 52 | 1023.5 |
| 20260831181515 | 89 | 0 | 1.0 | 3.0 | 0.00 | 0.00 | 0.00 | 54 | 1023.5 |
| 20260831180518 | 89 | 0 | 1.0 | 3.0 | 0.00 | 0.00 | 0.00 | 52 | 1023.6 |
| 20260831175516 | 88 | 0.0 | 1.0 | 0.00 | 0.00 | 0.00 | 55 | 1023.8 | |
| 20260831174516 | 87 | 23 | 1.0 | 5.0 | 0.00 | 0.00 | 0.00 | 56 | 1023.6 |
| 20260831173516 | 86 | 23 | 1.0 | 2.0 | 0.00 | 0.00 | 0.00 | 57 | 1023.8 |
| 20260831172516 | 86 | 0.0 | 1.0 | 0.00 | 0.00 | 0.00 | 63 | 1023.9 | |
| 20260831171515 | 85 | 0.0 | 2.0 | 0.00 | 0.00 | 0.00 | 63 | 1023.7 | |
| 20260831170515 | 84 | 0 | 1.0 | 3.0 | 0.00 | 0.00 | 0.00 | 64 | 1023.9 |
| 20260831165535 | 85 | 0 | 1.0 | 3.0 | 0.00 | 0.00 | 0.00 | 66 | 1024.0 |
| 20260831164516 | 85 | 0 | 1.0 | 5.0 | 0.00 | 0.00 | 0.00 | 64 | 1024.3 |
| 20260831163515 | 84 | 23 | 1.0 | 2.0 | 0.00 | 0.00 | 0.00 | 66 | 1024.4 |
| 20260831162517 | 83 | 0 | 1.0 | 4.0 | 0.00 | 0.00 | 0.00 | 66 | 1024.4 |
| 20260831161515 | 83 | 23 | 1.0 | 3.0 | 0.00 | 0.00 | 0.00 | 67 | 1024.3 |
| 20260831160515 | 82 | 0.0 | 0.0 | 0.00 | 0.00 | 0.00 | 72 | 1024.4 | |
| 20260831155515 | 81 | 0.0 | 2.0 | 0.00 | 0.00 | 0.00 | 72 | 1024.3 | |
| 20260831154515 | 80 | 0.0 | 0.0 | 0.00 | 0.00 | 0.00 | 75 | 1024.4 | |
| 20260831153515 | 79 | 0.0 | 2.0 | 0.00 | 0.00 | 0.00 | 77 | 1024.5 | |
| 20260831152515 | 79 | 0.0 | 0.0 | 0.00 | 0.00 | 0.00 | 81 | 1024.7 | |
| 20260831151515 | 77 | 0.0 | 1.0 | 0.00 | 0.00 | 0.00 | 82 | 1024.7 | |
| 20260831150515 | 76 | 0.0 | 4.0 | 0.00 | 0.00 | 0.00 | 84 | 1024.6 | |
| 20260831145515 | 75 | 0.0 | 0.0 | 0.00 | 0.00 | 0.00 | 86 | 1024.7 | |
| 20260831144515 | 74 | 0.0 | 1.0 | 0.00 | 0.00 | 0.00 | 88 | 1024.6 | |
| 20260831143515 | 73 | 0.0 | 1.0 | 0.00 | 0.00 | 0.00 | 90 | 1024.6 | |
| 20260831142555 | 72 | 0.0 | 1.0 | 0.00 | 0.00 | 0.00 | 90 | 1024.5 | |
| 20260831141515 | 71 | 0.0 | 0.0 | 0.00 | 0.00 | 0.00 | 89 | 1024.5 | |
| 20260831140515 | 70 | 0.0 | 0.0 | 0.00 | 0.00 | 0.00 | 85 | 1024.3 | |
| 20260831135515 | 69 | 0.0 | 0.0 | 0.00 | 0.00 | 0.00 | 80 | 1024.1 | |
| 20260831134515 | 69 | 0.0 | 0.0 | 0.00 | 0.00 | 0.00 | 78 | 1024.1 | |
| 20260831133515 | 68 | 0.0 | 0.0 | 0.00 | 0.00 | 0.00 | 78 | 1024.0 | |
| 20260831132515 | 67 | 0.0 | 0.0 | 0.00 | 0.00 | 0.00 | 77 | 1024.2 | |
| 20260831131515 | 67 | 0.0 | 0.0 | 0.00 | 0.00 | 0.00 | 77 | 1024.3 | |
| 20260831130515 | 66 | 0.0 | 0.0 | 0.00 | 0.00 | 0.00 | 76 | 1024.2 | |
| 20260831125515 | 66 | 0.0 | 0.0 | 0.00 | 0.00 | 0.00 | 76 | 1024.2 | |
| 20260831124517 | 66 | 0.0 | 0.0 | 0.00 | 0.00 | 0.00 | 77 | 1024.0 | |
| 20260831123517 | 65 | 0.0 | 0.0 | 0.00 | 0.00 | 0.00 | 77 | 1023.9 | |
| 20260831122517 | 65 | 0.0 | 0.0 | 0.00 | 0.00 | 0.00 | 78 | 1024.0 | |
| 20260831121517 | 65 | 0.0 | 0.0 | 0.00 | 0.00 | 0.00 | 79 | 1024.0 | |
| 20260831120517 | 64 | 0.0 | 0.0 | 0.00 | 0.00 | 0.00 | 80 | 1023.8 | |
| 20260831115517 | 64 | 0.0 | 0.0 | 0.00 | 0.00 | 0.00 | 81 | 1023.8 | |
| 20260831114517 | 64 | 0.0 | 0.0 | 0.00 | 0.00 | 0.00 | 81 | 1023.7 | |
| 20260831113517 | 64 | 0.0 | 0.0 | 0.00 | 0.00 | 0.00 | 82 | 1023.7 | |
| 20260831112517 | 64 | 0.0 | 0.0 | 0.00 | 0.00 | 0.00 | 83 | 1023.8 | |
| 20260831111517 | 64 | 0.0 | 0.0 | 0.00 | 0.00 | 0.00 | 83 | 1023.6 | |
| 20260831110517 | 64 | 0.0 | 0.0 | 0.00 | 0.00 | 0.00 | 83 | 1023.7 | |
| 20260831105517 | 64 | 0.0 | 0.0 | 0.00 | 0.00 | 0.00 | 83 | 1023.7 | |
| 20260831104517 | 65 | 0.0 | 0.0 | 0.00 | 0.00 | 0.00 | 83 | 1023.6 | |
| 20260831103517 | 65 | 0.0 | 0.0 | 0.00 | 0.00 | 0.00 | 84 | 1023.4 | |
| 20260831102517 | 65 | 0.0 | 0.0 | 0.00 | 0.00 | 0.00 | 83 | 1023.4 | |
| 20260831101557 | 65 | 0.0 | 0.0 | 0.00 | 0.00 | 0.00 | 83 | 1023.3 | |
| 20260831100517 | 65 | 0.0 | 0.0 | 0.00 | 0.00 | 0.00 | 83 | 1023.4 | |
| 20260831095517 | 65 | 0.0 | 0.0 | 0.00 | 0.00 | 0.00 | 83 | 1023.3 | |
| 20260831094537 | 65 | 0.0 | 0.0 | 0.00 | 0.00 | 0.00 | 84 | 1023.2 | |
| 20260831093517 | 65 | 0.0 | 0.0 | 0.00 | 0.00 | 0.00 | 84 | 1023.3 | |
| 20260831092517 | 65 | 0.0 | 0.0 | 0.00 | 0.00 | 0.00 | 85 | 1023.6 | |
| 20260831091537 | 65 | 0.0 | 0.0 | 0.00 | 0.00 | 0.00 | 85 | 1023.6 | |
| 20260831090517 | 66 | 0.0 | 0.0 | 0.00 | 0.00 | 0.00 | 85 | 1023.4 | |
| 20260831085517 | 66 | 0.0 | 0.0 | 0.00 | 0.00 | 0.00 | 85 | 1023.8 | |
| 20260831084517 | 66 | 0.0 | 0.0 | 0.00 | 0.00 | 0.00 | 85 | 1023.7 | |
| 20260831083517 | 66 | 0.0 | 0.0 | 0.00 | 0.00 | 0.00 | 85 | 1023.8 | |
| 20260831082557 | 66 | 0.0 | 0.0 | 0.00 | 0.00 | 0.00 | 84 | 1023.4 | |
| 20260831081517 | 66 | 0.0 | 0.0 | 0.00 | 0.00 | 0.00 | 85 | 1023.4 | |
| 20260831080537 | 66 | 0.0 | 0.0 | 0.00 | 0.00 | 0.00 | 85 | 1023.5 | |
| 20260831075517 | 66 | 0.0 | 0.0 | 0.00 | 0.00 | 0.00 | 85 | 1023.7 | |
| 20260831074517 | 67 | 0.0 | 0.0 | 0.00 | 0.00 | 0.00 | 85 | 1023.9 | |
| 20260831073517 | 67 | 0.0 | 0.0 | 0.00 | 0.00 | 0.00 | 86 | 1023.9 | |
| 20260831072517 | 67 | 0.0 | 0.0 | 0.00 | 0.00 | 0.00 | 86 | 1023.9 | |
| 20260831071517 | 67 | 0.0 | 0.0 | 0.00 | 0.00 | 0.00 | 86 | 1023.9 | |
| 20260831070536 | 67 | 0.0 | 0.0 | 0.00 | 0.00 | 0.00 | 87 | 1023.8 | |
| 20260831065516 | 67 | 0.0 | 0.0 | 0.00 | 0.00 | 0.00 | 87 | 1023.7 | |
| 20260831064517 | 67 | 0.0 | 0.0 | 0.00 | 0.00 | 0.00 | 87 | 1023.7 |